Change the Weather History Date:

Thursday, February 28, 2013

  Actual Average Record
Temperature  
Mean Temperature 50 °F -  
Max Temperature 62 °F 63 °F 62 °F (2013)
Min Temperature 37 °F 34 °F 25 °F (2011)
Degree Days  
Heating Degree Days 16    
Moisture  
Dew Point 4 °F    
Average Humidity 16    
Maximum Humidity 23    
Minimum Humidity 12    
Precipitation  
Precipitation 0.00 in - - ()
Sea Level Pressure  
Sea Level Pressure 30.33 in    
Wind  
Wind Speed 11 mph (ENE)    
Max Wind Speed 18 mph    
Max Gust Speed 28 mph    
Visibility 10 miles    
Events      
Averages and records for this station are not official NWS values.
T = Trace of Precipitation, MM = Missing Value Source: NWS Daily Summary

Daily Weather History Graph

Daily Weather History Graph

Search for Another Location

Airport or City:

Trip Planner

Search our weather history database for the weather conditions in past years. The results will help you decide how hot, cold, wet, or windy it might be!

Date:

Astronomy

Feb. 28, 2013 Rise Set
Actual Time 6:57 AM MST 6:22 PM MST
Civil Twilight 6:31 AM MST 6:47 PM MST
Nautical Twilight 6:02 AM MST 7:17 PM MST
Astronomical Twilight 5:33 AM MST 7:46 PM MST
Moon 9:42 PM MST (2/28) 8:18 AM MST (2/28)
Length of Visible Light 12h 15m
Length of Day
11h 25m
Waning Gibbous, 90% of the Moon is Illuminated
Feb 28
Waning Gibbous
Mar 4
Last Quarter
Mar 11
New
Mar 19
First Quarter
Mar 27
Full

Hourly Weather History & Observations

Time (MST) Temp. Windchill Dew Point Humidity Pressure Visibility Wind Dir Wind Speed Gust Speed Precip Events Conditions
12:15 AM 41.0 °F 34.7 °F -5.8 °F 14% 30.28 in 10.0 mi NNE 10.4 mph 25.3 mph N/A   Clear
12:35 AM 41.0 °F 34.3 °F -4.0 °F 15% 30.27 in 10.0 mi NE 11.5 mph 23.0 mph N/A   Clear
12:55 AM 41.0 °F 34.7 °F -4.0 °F 15% 30.27 in 10.0 mi NE 10.4 mph - N/A   Clear
1:15 AM 39.2 °F 32.5 °F -2.2 °F 17% 30.28 in 10.0 mi ENE 10.4 mph - N/A   Clear
1:35 AM 39.2 °F 32.5 °F -4.0 °F 16% 30.28 in 10.0 mi ENE 10.4 mph 16.1 mph N/A   Clear
1:55 AM 37.4 °F 29.8 °F -2.2 °F 19% 30.28 in 10.0 mi NE 11.5 mph - N/A   Clear
2:15 AM 37.4 °F 28.2 °F -2.2 °F 19% 30.28 in 10.0 mi NE 16.1 mph 21.9 mph N/A   Clear
2:35 AM 37.4 °F 27.5 °F -2.2 °F 19% 30.28 in 10.0 mi NE 18.4 mph 24.2 mph N/A   Clear
2:55 AM 37.4 °F 27.5 °F -2.2 °F 19% 30.27 in 10.0 mi NNE 18.4 mph 21.9 mph N/A   Clear
3:55 AM 39.2 °F 30.8 °F -4.0 °F 16% 30.27 in 10.0 mi NE 15.0 mph 21.9 mph N/A   Clear
4:15 AM 37.4 °F 27.8 °F -4.0 °F 17% 30.27 in 10.0 mi NNE 17.3 mph 21.9 mph N/A   Clear
4:35 AM 37.4 °F 29.3 °F -4.0 °F 17% 30.28 in 10.0 mi NNE 12.7 mph 18.4 mph N/A   Clear
4:55 AM 37.4 °F 29.3 °F -4.0 °F 17% 30.30 in 10.0 mi NE 12.7 mph 23.0 mph N/A   Clear
5:15 AM 37.4 °F 30.8 °F -2.2 °F 19% 30.30 in 10.0 mi ENE 9.2 mph - N/A   Clear
5:35 AM 37.4 °F 32.1 °F -2.2 °F 19% 30.32 in 10.0 mi ENE 6.9 mph 17.3 mph N/A   Clear
5:55 AM 37.4 °F 30.3 °F -0.4 °F 20% 30.32 in 10.0 mi NE 10.4 mph 17.3 mph N/A   Clear
6:15 AM 37.4 °F 32.1 °F -0.4 °F 20% 30.32 in 10.0 mi NE 6.9 mph - N/A   Clear
6:35 AM 37.4 °F 31.4 °F -0.4 °F 20% 30.33 in 10.0 mi NE 8.1 mph - N/A   Clear
6:55 AM 37.4 °F 30.8 °F -0.4 °F 20% 30.34 in 10.0 mi NNE 9.2 mph 17.3 mph N/A   Clear
7:15 AM 37.4 °F 32.1 °F -0.4 °F 20% 30.34 in 10.0 mi NE 6.9 mph 16.1 mph N/A   Clear
7:35 AM 39.2 °F - 1.4 °F 21% 30.34 in 10.0 mi Calm Calm - N/A   Clear
7:55 AM 41.0 °F 39.0 °F 1.4 °F 19% 30.34 in 10.0 mi NNE 3.5 mph - N/A   Clear
8:15 AM 41.0 °F 39.0 °F 5.0 °F 23% 30.35 in 10.0 mi NNW 3.5 mph - N/A   Clear
8:35 AM 42.8 °F 41.1 °F 5.0 °F 21% 30.35 in 10.0 mi ENE 3.5 mph - N/A   Clear
8:55 AM 44.6 °F 39.2 °F 5.0 °F 20% 30.35 in 10.0 mi NE 10.4 mph - N/A   Clear
9:15 AM 46.4 °F 39.5 °F 5.0 °F 18% 30.34 in 10.0 mi East 17.3 mph 27.6 mph N/A   Clear
9:35 AM 46.4 °F 41.1 °F 5.0 °F 18% 30.34 in 10.0 mi East 11.5 mph 26.5 mph N/A   Clear
9:55 AM 50.0 °F - 6.8 °F 17% 30.34 in 10.0 mi East 13.8 mph 20.7 mph N/A   Clear
10:15 AM 51.8 °F - 5.0 °F 15% 30.34 in 10.0 mi East 16.1 mph 23.0 mph N/A   Clear
10:35 AM 51.8 °F - 5.0 °F 15% 30.34 in 10.0 mi East 12.7 mph 19.6 mph N/A   Clear
10:55 AM 53.6 °F - 6.8 °F 15% 30.34 in 10.0 mi East 12.7 mph 18.4 mph N/A   Clear
11:35 AM 55.4 °F - 8.6 °F 15% 30.34 in 10.0 mi East 15.0 mph 18.4 mph N/A   Clear
11:55 AM 57.2 °F - 8.6 °F 14% 30.36 in 10.0 mi East 10.4 mph 19.6 mph N/A   Clear
12:15 PM 59.0 °F - 10.4 °F 15% 30.34 in 10.0 mi ESE 12.7 mph - N/A   Clear
12:35 PM 60.8 °F - 10.4 °F 14% 30.34 in 10.0 mi ESE 13.8 mph 19.6 mph N/A   Clear
12:55 PM 60.8 °F - 10.4 °F 14% 30.32 in 10.0 mi ESE 13.8 mph 18.4 mph N/A   Clear
1:15 PM 62.6 °F - 10.4 °F 13% 30.32 in 10.0 mi ESE 16.1 mph - N/A   Clear
1:35 PM 62.6 °F - 10.4 °F 13% 30.32 in 10.0 mi ESE 9.2 mph 18.4 mph N/A   Clear
1:55 PM 62.6 °F - 8.6 °F 12% 30.32 in 10.0 mi ESE 8.1 mph - N/A   Clear
2:35 PM 59.0 °F - 6.8 °F 13% 30.30 in 10.0 mi SE 4.6 mph - N/A   Clear
2:55 PM 59.0 °F - 6.8 °F 13% 30.31 in 10.0 mi North 5.8 mph - N/A   Clear
3:15 PM 60.8 °F - 8.6 °F 13% 30.32 in 10.0 mi SW 5.8 mph - N/A   Clear
3:35 PM 60.8 °F - 8.6 °F 13% 30.32 in 10.0 mi SSW 5.8 mph - N/A   Clear
3:55 PM 60.8 °F - 8.6 °F 13% 30.31 in 10.0 mi SSW 3.5 mph - N/A   Clear
4:15 PM 60.8 °F - 8.6 °F 13% 30.30 in 10.0 mi SSE 5.8 mph - N/A   Clear
4:35 PM 60.8 °F - 8.6 °F 13% 30.30 in 10.0 mi South 4.6 mph - N/A   Clear
4:55 PM 59.0 °F - 8.6 °F 14% 30.32 in 10.0 mi East 3.5 mph - N/A   Clear
5:15 PM 59.0 °F - 8.6 °F 14% 30.32 in 10.0 mi Calm Calm - N/A   Clear
5:35 PM 57.2 °F - 8.6 °F 14% 30.31 in 10.0 mi SSE 6.9 mph - N/A   Clear
5:55 PM 55.4 °F - 5.0 °F 13% 30.32 in 10.0 mi East 5.8 mph - N/A   Clear
6:15 PM 53.6 °F - 3.2 °F 13% 30.32 in 10.0 mi ENE 11.5 mph - N/A   Clear
6:35 PM 53.6 °F - 3.2 °F 13% 30.33 in 10.0 mi ENE 9.2 mph 17.3 mph N/A   Clear
6:55 PM 51.8 °F - 3.2 °F 14% 30.34 in 10.0 mi ENE 11.5 mph - N/A   Clear
7:15 PM 50.0 °F - 3.2 °F 15% 30.34 in 10.0 mi NE 11.5 mph 17.3 mph N/A   Clear
7:35 PM 50.0 °F - 3.2 °F 15% 30.34 in 10.0 mi ENE 13.8 mph - N/A   Clear
8:15 PM 48.2 °F - 3.2 °F 16% 30.34 in 10.0 mi NE 15.0 mph 20.7 mph N/A   Clear
8:35 PM 50.0 °F - 3.2 °F 15% 30.34 in 10.0 mi ENE 16.1 mph - N/A   Clear
8:55 PM 50.0 °F - 3.2 °F 15% 30.35 in 10.0 mi ENE 16.1 mph 21.9 mph N/A   Clear
9:35 PM 46.4 °F 40.1 °F 5.0 °F 18% 30.37 in 10.0 mi NE 15.0 mph 20.7 mph N/A   Clear
9:55 PM 48.2 °F - 5.0 °F 17% 30.39 in 10.0 mi NE 16.1 mph 25.3 mph N/A   Clear
10:35 PM 46.4 °F 41.5 °F 6.8 °F 20% 30.40 in 10.0 mi NNE 10.4 mph 18.4 mph N/A   Clear
10:55 PM 44.6 °F 39.2 °F 8.6 °F 23% 30.39 in 10.0 mi NNE 10.4 mph - N/A   Clear
11:15 PM 46.4 °F 41.1 °F 6.8 °F 20% 30.40 in 10.0 mi NE 11.5 mph - N/A   Clear
11:35 PM 46.4 °F 40.4 °F 6.8 °F 20% 30.40 in 10.0 mi ENE 13.8 mph - N/A   Clear
11:55 PM 46.4 °F 40.4 °F 6.8 °F 20% 30.40 in 10.0 mi ENE 13.8 mph - N/A   Clear